Location: *
(46.0770°N, 1.6444°E)
Time: 09:34:11
(UTC+00:00)

MetOp-A - Pass Details

Date: 16 September 2019
Orbit: 820 x 821 km, 98.6° (Epoch: 15 October)

Event Time Altitude Azimuth Distance (km) Brightness Sun altitude
Exits shadow 20:18:46 42° 170° (S) 1,165 4.6 -23.1°
Maximum altitude 20:20:41 85° 254° (WSW) 830 4.1 -23.3°
Drops below altitude 10° 20:26:05 10° 345° (NNW) 2,428 7.2 -24.1°
Sets 20:28:27 0° 346° (NNW) 3,365 8.0 -24.5°
